Location: ???????
(54.7123°N, 39.0709°E)
Time: 14:06:17
(UTC+00:00)

Daily predictions for brighter satellites

Satellite Brightness Start Highest point End
(mag) Time Altitude Azimuth Time Altitude Azimuth Time Altitude Azimuth
Cosmos 1725 Rocket 4.1 17:55:16 10° S 18:01:32 85° E 18:07:47 10° NNE
DEBRIS 3.8 18:00:01 10° SW 18:02:51 37° SSE 18:10:03 10° E
Cosmos 1331 Rocket 4.5 17:57:48 10° SW 18:03:01 69° WNW 18:08:14 10° NNE
Okean-O 2.6 17:59:26 10° SSE 18:03:49 89° ENE 18:08:14 10° NNW
Cosmos 2228 2.9 18:00:17 10° S 18:04:21 64° E 18:08:25 10° NNE
Tsikada Rocket 4.0 17:58:25 10° N 18:04:39 88° E 18:10:48 10° S
DNEPR-1 R/B 4.4 18:00:01 10° NW 18:05:11 71° NE 18:11:28 10° SE
Cosmos 1452 Rocket 3.6 18:00:03 10° SSW 18:05:17 86° WNW 18:10:34 10° NNE
Cosmos 1437 Rocket 3.9 18:03:14 10° SE 18:06:02 22° E 18:08:52 10° NE
Meteor 1-27 4.3 18:03:57 10° S 18:09:35 88° E 18:15:12 10° NNE
Cosmos 2278 4.0 18:04:43 10° NNW 18:10:26 65° NE 18:16:06 10° SE
ADEOS 4.3 18:06:28 10° S 18:11:34 53° W 18:16:41 10° NNW
USA 186 1.5 18:09:42 10° S 18:12:26 77° WSW 18:15:12 10° NNW
Cosmos 1758 Rocket 3.7 18:09:01 10° N 18:13:24 66° ENE 18:17:47 10° SSE
SL-16 R/B 2.3 18:09:50 10° NNW 18:15:33 81° NE 18:21:15 10° SE
Cosmos 1302 Rocket 4.0 18:10:36 10° SSW 18:15:45 77° ESE 18:20:59 10° NNE
ISS -3.3 18:13:23 10° WSW 18:16:34 41° SSE 18:19:45 10° E
Cosmos 2016 Rocket 4.1 18:10:43 10° SSW 18:16:58 84° W 18:23:12 10° N
CZ-4C R/B 2.1 18:12:29 10° SW 18:16:59 81° NW 18:22:54 10° NE
EP 1 4.3 18:15:34 10° NW 18:18:13 72° NE 18:20:51 10° SE
Cosmos 724 4.3 18:12:52 10° SW 18:18:54 83° SE 18:24:50 10° NE
NOSS 3 (A) 4.2 18:18:16 10° NW 18:20:18 57° NE 18:22:49 10° ESE
SL-08 R/B 3.4 18:17:42 10° NNE 18:22:35 88° WNW 18:27:21 10° SSW
CZ-4B R/B 2.5 18:20:14 10° SSE 18:23:35 67° ENE 18:27:04 10° N
NOSS 3-3 (C) 4.0 18:24:24 10° SSW 18:29:32 49° SE 18:35:40 10° NE
COSMOS 2406 3.5 18:24:32 10° S 18:29:59 46° ESE 18:35:27 10° NE
Cosmos 1980 Rocket 4.1 18:27:28 10° NW 18:31:59 25° WSW 18:36:29 10° SSW
USA 306 1.6 18:29:30 10° WSW 18:32:23 45° SSE 18:34:17 10° E
Meteor 1-20 Rocket 4.2 18:26:49 10° NNW 18:32:24 86° ENE 18:38:05 10° SSE
Terra 3.6 18:31:22 10° SSW 18:35:25 28° W 18:39:29 10° NNW
Helios 1A Rocket 4.4 18:34:03 10° N 18:36:52 30° WNW 18:39:39 10° SW
YAOGAN 11 4.1 18:32:35 10° NNE 18:37:02 88° ESE 18:41:30 10° SSW
Cosmos 1602 Rocket 3.6 18:33:34 10° N 18:37:53 67° ENE 18:41:56 11° SSE
NOSS 3-4 (A) 3.8 18:33:38 10° NW 18:40:06 87° SW 18:47:25 11° SE
Cosmos 2333 Rocket 2.3 18:34:59 10° NW 18:40:42 79° WSW 18:46:04 12° SSE
NOSS 3-4 (C) 3.8 18:34:14 10° NW 18:40:44 87° SW 18:48:04 12° SE
CZ-4 R/B 4.2 18:41:25 10° WSW 18:42:27 11° W 18:43:28 10° WNW
USA 245 4.5 18:37:51 10° S 18:43:46 76° WSW 18:49:19 10° NNW
Cosmos 2061 Rocket 4.2 18:40:49 10° SSW 18:47:03 80° WNW 18:53:25 10° N
Cosmos 1933 3.3 18:44:40 10° S 18:48:24 59° E 18:52:11 10° NNE
Cosmos 1464 Rocket 4.4 18:44:19 10° SSE 18:50:03 46° E 18:55:55 10° NNE
Cosmos 44 Rocket 4.4 18:45:28 10° WSW 18:50:30 54° NW 18:55:38 10° NE
ATLAS 2AS CENTAUR R/B 3.9 18:44:56 10° W 18:51:32 46° NNW 18:58:03 10° NE
Cosmos 1626 Rocket 4.3 18:50:15 10° NNW 18:54:28 50° W 18:58:43 10° S
Cosmos 1607 4.1 18:52:03 10° SW 18:58:15 79° NW 19:04:36 10° NE
SPOT 3 Rocket 3.9 18:53:11 10° S 18:58:17 62° WSW 19:03:24 10° NNW
Cosmos 2360 Rocket 2.2 18:53:05 10° NNW 18:58:49 88° ENE 19:03:37 15° SSE
Cosmos 1805 2.7 18:56:32 10° N 18:59:50 81° E 19:02:14 17° SSE
Ariane Rocket 3.2 18:57:02 11° S 19:01:55 71° WSW 19:07:00 10° NNW
Cosmos 1076 Rocket 4.0 18:58:46 10° N 19:02:56 48° ENE 19:06:00 17° SE
Cosmos 2098 Rocket 3.3 18:58:40 12° S 19:03:01 54° E 19:07:04 10° NNE
Cosmos 2333 4.3 18:58:00 10° NNW 19:03:46 84° ENE 19:08:32 15° SE
Meteor 1-25 Rocket 4.4 18:58:38 10° NNW 19:04:20 75° W 19:09:34 12° S
BREEZE-M DEB (TANK) 2.2 19:03:14 10° WSW 19:05:24 23° S 19:05:38 22° SSE
Cosmos 220 Rocket 4.0 19:04:11 10° S 19:08:07 52° ESE 19:12:08 10° NE
Cosmos 1536 4.1 19:06:59 10° N 19:10:05 25° ENE 19:12:23 14° ESE
Cosmos 2219 Rocket 2.3 19:07:18 10° NNW 19:12:59 77° NE 19:17:33 16° SE
Helios 1A 4.1 19:10:18 10° NE 19:13:37 25° E 19:15:28 18° SE
Cosmos 1606 Rocket 3.7 19:12:21 16° S 19:15:39 54° E 19:19:53 10° NNE
Cosmos 2151 4.0 19:13:21 10° NNW 19:17:11 39° W 19:21:00 10° SSW
Cosmos 1763 Rocket 4.2 19:15:44 16° SSE 19:19:17 35° ESE 19:24:04 10° NE
Helios 1B rocket 3.1 19:18:06 17° ESE 19:20:16 33° ENE 19:23:28 10° N
Okean 1 3.4 19:18:42 20° SSE 19:20:49 46° E 19:24:17 10° NNE
Okean O Rocket 3.8 19:17:52 10° SW 19:21:02 20° W 19:24:13 10° NW
Cosmos 990 Rocket 4.0 19:18:53 10° NNW 19:24:05 81° ENE 19:27:52 19° SSE
Cosmos 1726 Rocket 3.7 19:22:24 20° SSE 19:24:58 48° E 19:28:53 10° NNE
Cosmos 2034 Rocket 4.2 19:22:29 16° SSE 19:27:36 58° E 19:33:48 10° NNE
TSX-5 4.3 19:26:33 10° NNW 19:29:28 37° NE 19:31:39 16° ESE
Cosmos 2322 Rocket 2.6 19:24:12 10° NW 19:29:45 57° WSW 19:33:58 18° S
Okean 1-7 Rocket 3.9 19:25:42 10° NNW 19:30:08 66° W 19:33:33 17° S
Cosmos 1461 2.4 19:26:43 10° SW 19:30:25 75° SE 19:34:05 10° NE
RESURS DK-1 3.6 19:27:03 10° NNW 19:30:44 34° NE 19:34:01 12° ESE
CZ-2C R/B 3.5 19:30:01 15° SSW 19:31:49 29° W 19:34:19 10° NW
Cosmos 1470 4.2 19:29:39 10° NNE 19:32:11 20° ENE 19:33:54 14° ESE
CZ-4B R/B 4.5 19:27:58 10° SSW 19:32:20 38° W 19:36:52 10° NNW
Cosmos 1777 Rocket 4.5 19:30:06 10° NW 19:35:12 53° WSW 19:39:00 17° S
Cosmos 2082 Rocket 3.4 19:30:56 10° WSW 19:36:24 45° NW 19:41:53 10° NNE
GRACE-FO 1 4.5 19:37:11 21° S 19:39:25 78° W 19:42:55 10° N
Cosmos 1437 Rocket 3.9 19:37:11 10° SW 19:40:31 37° WNW 19:43:55 10° N
Cosmos 1975 4.4 19:38:03 10° NNE 19:41:01 22° ENE 19:43:05 15° ESE
Cosmos 1503 Rocket 4.3 19:37:05 10° NNW 19:42:12 58° WSW 19:45:44 20° S
Cosmos 909 Rocket 4.5 19:36:25 10° SW 19:42:41 69° NW 19:49:29 10° NE
Nadezhda 4 Rocket 4.2 19:36:46 10° NNW 19:42:49 65° W 19:47:52 15° S
Meteor 1-26 Rocket 4.5 19:42:46 20° SSE 19:46:30 54° E 19:52:03 10° NNE
Cosmos 2237 Rocket 3.6 19:42:35 10° NNW 19:47:45 34° NE 19:52:52 10° ESE
NOSS 3-3 (A) 4.3 19:43:30 10° WSW 19:48:59 67° NNW 19:55:45 10° NE
Cosmos 44 3.5 19:45:31 10° NW 19:50:58 83° SW 19:54:37 21° SE
IKONOS-2 4.5 19:47:14 10° NNE 19:51:21 62° ESE 19:53:46 23° S
Cosmos 1634 Rocket 4.3 19:48:18 20° SSE 19:52:23 51° E 19:58:22 10° NNE
ISS -3.5 19:49:51 10° W 19:53:05 47° S 19:54:30 28° SE
Cosmos 1354 Rocket 4.2 19:50:36 10° NNW 19:55:48 64° WSW 19:59:07 22° S
Cosmos-2242 3.1 19:54:02 25° SSE 19:56:13 57° E 20:00:16 10° NNE
COSMOS 2428 3.0 19:50:50 10° NNW 19:56:31 62° NE 20:00:54 17° SE
SL-16 R/B 3.9 19:54:40 10° NW 19:59:02 23° WSW 20:03:19 10° SSW
USA 306 3.0 19:57:07 10° W 19:58:04 19° W 19:58:04 19° W
CZ-2C R/B 4.2 19:56:07 10° ESE 20:00:22 26° NE 20:04:35 10° N
KORONAS-FOTON 4.2 19:59:46 29° SE 20:00:50 38° E 20:04:01 10° NNE
USA 290 2.1 20:01:14 23° SSW 20:03:01 86° WNW 20:06:11 10° NNE
Cosmos 1707 1.9 20:04:33 43° SSE 20:05:16 65° E 20:08:06 10° NNE
Cosmos 2026 Rocket 4.2 19:59:26 10° NNW 20:05:49 74° W 20:10:23 20° S
CZ-4C R/B 3.8 20:01:10 10° W 20:05:57 39° N 20:12:07 10° ENE
Cosmos 372 Rocket 3.9 20:02:27 10° NNW 20:07:37 84° ENE 20:10:44 24° SSE
Cosmos 1953 Rocket 4.0 20:05:53 10° NNW 20:10:09 53° W 20:12:42 22° SSW
COSMOS 2406 4.3 20:08:48 10° WSW 20:14:20 46° NW 20:19:53 10° NNE
Aureole 1 Rocket 4.0 20:11:02 10° NNW 20:16:31 70° WSW 20:20:45 23° SSE
Meteor 1-14 Rocket 4.3 20:12:27 10° N 20:18:02 69° ENE 20:21:27 24° SSE
Cosmos 1271 Rocket 3.1 20:19:22 31° SE 20:20:14 37° E 20:23:24 10° NNE
Cosmos 2221 3.4 20:18:37 25° SE 20:20:15 34° E 20:24:04 10° NNE
GP-B 4.4 20:18:25 10° NNE 20:22:15 29° E 20:24:23 20° SE
Cosmos 540 Rocket 3.4 20:18:42 17° SSW 20:22:41 88° ESE 20:27:52 10° NNE
Cosmos 2058 Rocket 3.0 20:20:44 26° S 20:23:09 88° E 20:27:31 10° NNE
Cosmos 2333 Rocket 4.2 20:20:29 10° WNW 20:24:08 18° W 20:27:48 10° SW
Cosmos 1937 Rocket 3.6 20:20:16 10° NNW 20:25:26 69° ENE 20:28:40 23° SE
Cosmos 1766 3.7 20:25:08 10° NNW 20:28:08 37° W 20:29:18 27° SW
Geosat 4.0 20:25:08 10° NNE 20:30:11 86° WNW 20:34:37 13° SW
Spot 4 3.8 20:28:46 27° SSE 20:31:22 88° WSW 20:36:13 10° NNW
ARGOS Delta rocket 4.4 20:27:54 10° NNE 20:32:53 52° E 20:35:39 26° SSE
BREEZE-M R/B 4.3 20:26:28 10° W 20:33:48 54° SSW 20:39:27 10° ESE
Cosmos 468 Rocket 4.0 20:30:46 24° S 20:33:56 67° ESE 20:39:10 10° NNE
Cosmos 1842 2.7 20:33:12 45° SSE 20:34:00 68° E 20:37:09 10° NNE
Cosmos 1833 4.2 20:29:39 12° SW 20:34:52 85° WNW 20:40:32 10° NNE
ARIANE 5 R/B 2.6 20:34:30 29° S 20:36:43 79° WSW 20:41:13 10° NNW
CZ-2C R/B 4.3 20:31:59 10° NNE 20:37:11 34° E 20:40:12 21° SE
Cosmos 2297 Rocket 3.6 20:35:27 18° SE 20:37:34 23° ESE 20:41:52 10° NE
ALOS 2 2.6 20:35:46 30° SSE 20:37:58 90° NE 20:42:23 10° NNW
Meteor 2-6 Rocket 4.3 20:35:51 24° S 20:39:37 78° E 20:45:35 10° NNE
USA 234 3.9 20:35:47 10° ENE 20:41:42 35° SE 20:44:47 23° S
Cosmos 2360 Rocket 3.9 20:37:57 10° NW 20:42:06 21° WSW 20:45:21 13° SW
Cosmos 2322 3.8 20:36:29 10° NW 20:42:10 69° WSW 20:45:23 26° SSE
ATLAS 2AS CENTAUR R/B 4.0 20:37:22 10° WNW 20:43:47 41° N 20:50:10 10° E
Cosmos 1536 3.7 20:42:00 10° NNW 20:45:24 35° W 20:46:54 24° SW
Helios 1A 3.9 20:44:43 10° N 20:48:26 41° WNW 20:51:10 16° SW
Helios 1B rocket 3.6 20:52:03 21° SW 20:53:18 25° W 20:56:16 10° NW
PSLV R/B 3.7 20:51:11 10° NNE 20:55:26 62° ESE 20:57:18 32° S
Cosmos 2219 Rocket 3.6 20:51:52 10° NW 20:56:24 25° WSW 20:59:14 17° SW
Cosmos 1898 Rocket 3.7 20:51:56 10° NNW 20:57:01 57° WSW 20:59:35 28° S
SeaSat 1 3.1 20:55:07 13° ESE 20:59:23 53° NE 21:04:10 10° NNW
Meteor 1-19 Rocket 4.4 20:57:24 26° S 21:00:43 71° E 21:06:40 10° NNE
Cosmos 1763 Rocket 4.3 20:55:44 10° SW 21:00:53 50° NW 21:06:01 10° NNE
Cosmos 1766 Rocket 4.3 20:57:05 10° N 21:01:14 45° ENE 21:03:33 23° SE
Cosmos 1470 3.3 21:03:10 10° NNW 21:06:14 36° W 21:07:06 30° SW
RESURS DK-1 2.9 21:04:25 10° NW 21:08:09 40° WSW 21:09:14 33° SSW
Cosmos 2322 Rocket 4.4 21:10:38 10° WNW 21:12:35 12° W 21:14:33 10° WSW
NOSS 0 Rocket 4.0 21:06:35 10° NW 21:12:40 61° WSW 21:16:09 26° S
NOSS 8 (H) 4.0 21:11:41 10° NW 21:14:31 60° SW 21:14:47 56° SSW
BREEZE-M DEB (TANK) 3.8 21:09:05 10° W 21:15:27 42° SSW 21:20:17 10° ESE
Cosmos 1975 3.4 21:12:40 10° NNW 21:16:09 40° W 21:17:20 30° SW
Intercosmos 24 3.7 21:14:19 10° N 21:18:31 82° E 21:19:54 36° SSE
MetOp-A 3.8 21:16:05 30° S 21:18:33 75° WSW 21:23:15 10° NNW
SL-16 R/B 3.3 21:13:59 10° NNW 21:19:25 42° NE 21:24:48 10° ESE
Lacrosse 4 Rocket 2.8 21:25:45 21° SE 21:26:29 22° ESE 21:29:38 10° ENE
ISS -1.5 21:26:43 10° W 21:27:26 14° WSW 21:27:26 14° WSW
Cosmos 841 Rocket 3.5 21:29:05 25° SSW 21:32:11 86° WNW 21:37:29 10° NNE
Cosmos 2237 Rocket 2.2 21:26:37 10° NW 21:32:18 72° WSW 21:35:40 25° SSE
Cosmos 1812 Rocket 3.8 21:33:38 29° SSW 21:35:48 65° WNW 21:40:13 10° N
Meteor 1-11 Rocket 4.1 21:30:23 10° NNW 21:35:55 54° W 21:38:54 26° SSW
Cosmos 1980 3.8 21:30:43 10° NW 21:36:19 64° WSW 21:39:29 26° S
NOSS 8 (E) 4.2 21:34:59 10° WNW 21:37:50 52° SW 21:38:00 51° SSW
Meteor 2-20 Rocket 4.4 21:36:40 26° S 21:39:58 69° E 21:45:39 10° NNE
CZ-2C R/B 2.6 21:37:19 28° S 21:40:11 71° WSW 21:45:25 10° NNW
COSMOS 2428 3.7 21:35:27 10° NW 21:40:28 32° WSW 21:42:51 23° SSW
CZ-4C R/B 4.1 21:38:04 10° NNE 21:41:09 32° E 21:42:10 26° SE
ACS3 Solar Sail 2.6 21:35:36 10° NNE 21:41:11 39° E 21:45:00 19° SSE
Meteor 2-4 Rocket 3.8 21:41:22 26° S 21:44:22 64° E 21:49:51 10° NNE
Meteor 1-10 Rocket 4.4 21:40:49 24° SSW 21:44:30 73° WNW 21:50:29 10° NNE
Cosmos 2227 Rocket 3.3 21:44:30 21° SSE 21:47:19 32° ESE 21:52:17 10° NE
Meteor 2-20 4.5 21:45:33 25° SSW 21:49:20 79° WNW 21:55:27 10° N
Okean 3 Rocket 4.1 21:46:19 10° N 21:50:47 55° ENE 21:53:39 21° SE
Cosmos 1271 Rocket 4.5 21:52:42 14° WSW 21:54:35 21° WNW 21:57:14 10° NNW
CZ-4C R/B 3.9 21:50:00 10° NW 21:55:28 42° NNE 22:02:29 10° E
Cosmos 192 4.3 21:51:33 10° NNW 21:56:30 76° WSW 21:59:23 25° SSE
Cosmos 2221 3.7 21:54:54 18° WSW 21:57:18 32° WNW 22:01:06 10° N
Cosmos 2263 Rocket 3.6 21:56:11 16° SSE 21:59:12 26° ESE 22:03:43 10° NE
GP-B 3.9 21:55:18 10° N 21:59:24 40° W 22:01:32 24° SW
Meteor 1-27 Rocket 3.8 21:56:56 25° SSW 22:00:28 80° WNW 22:06:14 10° NNE
Cosmos 1842 Rocket 3.7 22:01:31 28° S 22:03:40 64° E 22:08:03 10° NNE
Cosmos 1238 Rocket 2.9 22:02:31 33° SSW 22:04:15 75° W 22:08:39 10° N
Cosmos 1805 Rocket 4.1 22:06:29 10° N 22:10:45 53° ENE 22:13:48 18° SSE
Sich 1 2.8 22:09:55 10° NNW 22:14:07 88° W 22:16:18 27° S
Iridium 4 Rocket 3.8 22:11:57 24° S 22:15:29 89° W 22:21:21 10° N
Landsat 5 3.4 22:13:00 10° NNE 22:17:08 77° WNW 22:19:05 29° SSW
CZ-2C R/B 3.7 22:11:36 10° N 22:17:11 56° WNW 22:21:10 20° SW
SL-19 R/B 4.4 22:19:08 22° SE 22:20:53 52° ENE 22:24:04 10° N
Cosmos 2297 Rocket 2.2 22:17:12 22° SW 22:20:58 83° WNW 22:26:40 10° NNE
Cosmos 1745 Rocket 4.5 22:16:42 10° N 22:22:46 57° ENE 22:28:46 10° SSE
Cosmos 1655 Rocket 4.3 22:16:48 10° NNW 22:22:51 53° W 22:26:42 22° SSW
Cosmos 1758 3.0 22:19:46 10° N 22:23:24 87° ENE 22:25:10 29° SSE
USA 234 3.2 22:18:46 10° ENE 22:25:21 77° SSE 22:31:55 10° WSW
Cosmos 1408 Rocket 3.4 22:31:06 10° NNW 22:35:25 89° E 22:38:11 22° S
ATLAS 2AS CENTAUR R/B 3.0 22:28:50 10° NW 22:35:38 71° NE 22:42:26 10° ESE
Cosmos 1340 Rocket 2.7 22:32:55 10° NNW 22:36:46 78° ENE 22:39:16 21° SSE
SeaSat 1 3.1 22:34:43 24° SSW 22:36:55 36° WSW 22:41:27 10° NW
Meteor 2-10 Rocket 4.1 22:32:20 10° NNW 22:37:37 49° W 22:40:59 22° SSW
Iridium 45 4.4 22:37:59 30° S 22:39:36 86° W 22:43:03 10° N
SL-14 R/B 3.1 22:38:08 28° S 22:40:03 89° ESE 22:43:53 10° NNE
EXPRESS MD2 4.5 22:43:31 12° ESE 22:43:31 12° ESE 22:43:53 10° ESE
Cosmos 1125 Rocket 3.5 22:38:54 10° NNW 22:44:12 75° WSW 22:48:46 14° SSE
BlueWalker 3 2.5 22:43:33 29° S 22:44:21 32° SSE 22:47:34 10° E
Cosmos 1066 Rocket 4.3 22:40:54 22° SSW 22:44:26 67° WNW 22:49:58 10° N
Meteor 1-18 Rocket 4.3 22:49:51 21° SSW 22:53:40 72° WNW 22:59:22 10° NNE
DELTA 2 DEB (DPAF) 4.0 22:50:35 10° N 22:54:02 50° WNW 22:55:56 24° SW
Cosmos 2084 3.4 22:50:50 10° NW 22:54:53 57° SW 22:58:55 10° SSE
Cosmos 1814 Rocket 4.2 22:59:05 19° SW 23:02:46 68° WNW 23:08:02 10° NNE
Cosmos 1953 2.7 22:59:43 10° N 23:03:20 54° ENE 23:06:54 10° SSE
SL-16 R/B 2.4 22:58:10 10° NW 23:03:41 52° WSW 23:08:39 13° S
Lacrosse 4 Rocket 1.6 23:01:08 19° SW 23:03:53 64° NW 23:07:59 10° NE
BREEZE-M DEB (TANK) 3.7 23:07:01 23° SSW 23:07:22 23° S 23:11:40 10° SE
CZ-2D R/B 4.3 23:04:29 10° NE 23:08:26 20° E 23:12:24 10° SE
IDEFIX/ARIANE 42P 2.9 23:03:15 10° NNE 23:08:26 61° ESE 23:12:47 15° S
Cosmos 2219 3.9 23:04:46 15° S 23:09:03 45° ESE 23:14:24 10° NE
NPP 4.2 23:08:20 10° NNE 23:13:38 53° E 23:18:30 12° S
CZ-4C R/B 4.5 23:11:02 10° N 23:13:52 25° WNW 23:15:55 15° WSW
Cosmos 2237 Rocket 3.9 23:12:09 10° WNW 23:15:22 16° W 23:17:27 13° WSW
H-2A R/B 4.3 23:12:20 10° NE 23:16:15 20° E 23:20:11 10° SE
Cosmos 1633 Rocket 3.5 23:13:31 10° N 23:17:50 62° ENE 23:22:06 10° SSE
Cosmos 1151 Rocket 3.1 23:15:33 20° SSW 23:18:26 63° WNW 23:22:45 10° N
Cosmos 1500 Rocket 4.2 23:15:48 10° NNW 23:19:58 40° W 23:22:48 18° SSW
S3M 4.1 23:14:46 14° S 23:20:13 80° E 23:26:23 10° NNE
PSLV R/B 4.2 23:18:00 10° N 23:21:47 50° WNW 23:24:24 18° SW
ACS3 Solar Sail 2.2 23:17:58 10° N 23:23:40 49° WNW 23:28:30 15° SW
Meteor 1-22 Rocket 4.3 23:19:16 10° NNW 23:25:08 75° W 23:30:43 10° S
CENTAUR R/B 4.0 23:20:39 10° SSE 23:25:12 26° ESE 23:30:38 10° ENE
Cosmos 2315 Rocket 4.2 23:22:19 11° S 23:28:23 75° E 23:34:43 10° NNE
Cosmos 2227 Rocket 2.5 23:26:17 15° SW 23:31:04 63° NW 23:36:43 10° NNE
DMSP B5D2-2 4.4 23:27:04 10° SSE 23:32:13 68° ENE 23:37:26 10° NNW
H-2A R/B 3.8 23:31:07 10° SE 23:34:21 33° ENE 23:37:40 10° N
Envisat 4.2 23:31:20 10° NNE 23:36:03 37° E 23:40:44 10° SSE
Cosmos 2263 Rocket 2.3 23:37:50 14° SW 23:42:37 74° NW 23:48:14 10° NNE
BREEZE-M DEB (TANK) 3.1 23:35:59 10° WSW 23:44:05 45° S 23:47:15 10° ESE
MSX 3.9 23:38:24 10° NNE 23:44:12 80° WNW 23:49:33 12° SSW
CZ-4C R/B 3.0 23:38:10 10° NW 23:44:32 78° NE 23:52:46 10° SE
Cosmos 1709 Rocket 4.2 23:39:17 10° NNW 23:45:18 57° W 23:51:22 10° S
SL-16 R/B 4.4 23:42:01 10° ESE 23:47:33 35° NE 23:53:05 10° N
Cosmos 1666 Rocket 3.7 23:44:57 10° NNW 23:49:20 60° W 23:53:42 10° S
Cosmos 1943 3.3 23:43:56 10° NW 23:49:27 57° WSW 23:54:55 10° SSE
Meteor 1-15 Rocket 4.4 23:45:21 10° NNW 23:51:14 68° W 23:57:05 10° S
Cosmos 1867 3.5 23:46:07 10° NW 23:51:34 69° SW 23:56:59 10° SSE
